Flag for Brazil Weather past 2 weeks in Porto Acre, Acre, Brazil

Now
75 °F

Passing clouds.


Feels Like: 74 °F
Forecast: 74 / 88 °F
Wind: No wind

Location: Rio Branco Airport

Current Time: Apr 27, 2015 at 12:09:47 AM

Latest Report: Apr 26, 2015 at 11:00 PM


Visibility: N/A

Pressure: 29.89 "Hg

Humidity: 94%

Dew point: 73 °F

Location of Porto AcreLocation

Historic Weather in Porto Acre — Graph

°F

Porto Acre temperature yesterday

Maximum temperature yesterday: 90 °F (at 1:00 PM)
Minimum temperature yesterday: 73 °F (at 12:00 AM)
Average temperature yesterday: 80 °F

Past Weeks' High & Low Weather Summary

 TemperatureHumidityPressure
High90 °F (Apr 16, 1:00 PM)100% (Apr 12, 1:00 AM)30.04 "Hg (Apr 12, 1:00 AM)
Low68 °F (Apr 18, 3:00 AM)59% (Apr 16, 12:00 PM)29.74 "Hg (Apr 20, 4:00 PM)
Average78 °F88%29.89 "Hg
* Reported Apr 11 11:00 PM — Apr 26 11:00 PM, Porto Acre, Weather by CustomWeather, © 2015

Note: Actual official high and low records may vary slightly from our data, if they occured in-between our weather recording intervals... More about our weather records

Advertising

Porto Acre weather history for previous 24 hours

 ConditionsComfort  
Time TempWeatherWind HumidityBarometerVisibility
11:00 PM
Sun, Apr 26
75 °FPassing clouds.No wind94%29.89 "HgN/A
10:00 PM75 °FPassing clouds.3 mph94%29.89 "HgN/A
9:00 PM75 °FPassing clouds.No wind94%29.89 "HgN/A
8:00 PM77 °FPassing clouds.No wind94%29.86 "HgN/A
7:00 PM79 °FPassing clouds.2 mph84%29.83 "HgN/A
6:00 PM82 °FThunderstorms. Scattered clouds.2 mph84%29.83 "HgN/A
5:00 PM86 °FScattered showers. Scattered clouds.No wind75%29.80 "HgN/A
4:00 PM88 °FPassing clouds.3 mph66%29.77 "HgN/A
3:00 PM86 °FScattered clouds.5 mph70%29.80 "HgN/A
2:00 PM86 °FScattered clouds.5 mph70%29.83 "HgN/A
1:00 PM90 °FPartly sunny.6 mph59%29.89 "HgN/A
12:00 PM86 °FPartly sunny.3 mph66%29.92 "HgN/A
11:00 AM86 °FPartly sunny.3 mph75%29.95 "HgN/A
10:00 AM86 °FPartly sunny.6 mph75%29.98 "HgN/A
9:00 AM82 °FPartly sunny.6 mph84%29.98 "HgN/A
8:00 AM81 °FScattered clouds.6 mph89%29.98 "HgN/A
7:00 AM75 °FScattered clouds.3 mph100%29.95 "HgN/A
6:00 AM73 °FPassing clouds.3 mph94%29.95 "HgN/A
5:00 AM73 °FPassing clouds.2 mph94%29.92 "HgN/A
4:00 AM73 °FPassing clouds.3 mph94%29.92 "HgN/A
3:00 AM73 °FPassing clouds.2 mph94%29.92 "HgN/A
2:00 AM73 °FPassing clouds.5 mph94%29.92 "HgN/A
1:00 AM73 °FPassing clouds.2 mph100%29.92 "HgN/A
12:00 AM73 °FPassing clouds.2 mph100%29.95 "HgN/A
Weather by CustomWeather, © 2015

See weather overviewHow to use our weather pages